This is the latest recevied weather packets stored in our database for station/object IW3HBX-3. If no packets are shown the sender has not sent any weather packets the latest 10 day(s).
| Time | Temp. | Humidity | Pressure | Rain* | Wind** | Luminosity | Snow |
|---|---|---|---|---|---|---|---|
| 1776933621 | 16.67° C | 49% | 1024.2 hPa | 0 mm | - | 596 W/m² | - |
| 1776933321 | 17.22° C | 50% | 1024.1 hPa | 0 mm | - | 583 W/m² | - |
| 1776933022 | 16.67° C | 47% | 1024.2 hPa | 0 mm | - | 569 W/m² | - |
| 1776932722 | 17.22° C | 49% | 1024.2 hPa | 0 mm | - | 556 W/m² | - |
| 1776932422 | 17.22° C | 49% | 1024.3 hPa | 0 mm | - | 547 W/m² | - |
| 1776932122 | 17.78° C | 49% | 1024.4 hPa | 0 mm | - | 530 W/m² | - |
| 1776931823 | 17.22° C | 52% | 1024.5 hPa | 0 mm | - | 515 W/m² | - |
| 1776931523 | 17.22° C | 52% | 1024.5 hPa | 0 mm | - | 499 W/m² | - |
| 1776931223 | 16.67° C | 53% | 1024.6 hPa | 0 mm | - | 483 W/m² | - |
| 1776930923 | 16.11° C | 54% | 1024.6 hPa | 0 mm | - | 466 W/m² | - |
| 1776930624 | 16.11° C | 55% | 1024.6 hPa | 0 mm | - | 452 W/m² | - |
| 1776930324 | 15.56° C | 55% | 1024.6 hPa | 0 mm | - | 436 W/m² | - |
| 1776930024 | 15° C | 56% | 1024.6 hPa | 0 mm | - | 421 W/m² | - |
| 1776929811 | 15° C | 57% | 1024.7 hPa | 0 mm | - | 405 W/m² | - |
| 1776929724 | 15° C | 57% | 1024.7 hPa | 0 mm | - | 405 W/m² | - |
| 1776929425 | 14.44° C | 56% | 1024.7 hPa | 0 mm | - | 390 W/m² | - |
| 1776929125 | 15° C | 56% | 1024.8 hPa | 0 mm | - | 376 W/m² | - |
| 1776928825 | 14.44° C | 56% | 1024.7 hPa | 0 mm | - | 361 W/m² | - |
| 1776928525 | 14.44° C | 58% | 1024.6 hPa | 0 mm | - | 344 W/m² | - |
| 1776928226 | 13.89° C | 58% | 1024.5 hPa | 0 mm | - | 328 W/m² | - |
| 1776927926 | 14.44° C | 58% | 1024.6 hPa | 0 mm | - | 314 W/m² | - |
| 1776927626 | 13.89° C | 59% | 1024.6 hPa | 0 mm | - | 299 W/m² | - |
| 1776927326 | 13.33° C | 61% | 1024.6 hPa | 0 mm | - | 282 W/m² | - |
| 1776927027 | 12.78° C | 64% | 1024.7 hPa | 0 mm | - | 264 W/m² | - |
| 1776926727 | 13.89° C | 58% | 1024.6 hPa | 0 mm | - | 250 W/m² | - |
* Rain latest hour (hover to see other rain measurements)
** Current wind speed in m/s (hover to see current wind gust speed)